User: anonymous   Login
Location: Indian Springs
(36.5700°N, 115.6700°W)
Time: 15:20:43
(UTC-07:00)
Language:

Cosmos 2278 Rocket - Orbit

View from above orbital plane
View from above orbital plane
View from above satellite
View from above satellite

Ground track
Ground track

The orbit data is extracted from the following two-line orbital elements,

1 23088U 94023B   15244.35425367 -.00000305  00000-0 -13391-3 0  9990
2 23088  70.9985 216.4327 0003736 333.1922  26.9007 14.14625167102934
Epoch (UTC): 01 September 2015 08:30:07
Eccentricity: 0.0003736
inclination: 70.9985°
perigee height: 841 km
apogee height: 846 km
right ascension of ascending node: 216.4327°
argument of perigee: 333.1922°
revolutions per day: 14.14625167
mean anomaly at epoch: 26.9007°
orbit number at epoch: 10293

The dashed part of the orbit path shows where the satellite is in the earth's shadow,  

DLR